Weather WX

World > North America > United States > Ohio

Havana, Ohio Regional Weather

Lat: 41.14N, Lon: 82.75W
Wx Zone: OHZ019
Warning FLW WEATHER ALERT - FLASH FLOOD WATCH (More Info. Click Here) Warning
Feedback

Havana, OH Regional Weather

Expires:201906200000;;754035
ASUS41 KCLE 192310
RWRCLE
OHIO REGIONAL WEATHER ROUNDUP
NATIONAL WEATHER SERVICE WILMINGTON, OH
700 PM EDT WED JUN 19 2019

NOTE: "FAIR" INDICATES FEW OR NO CLOUDS BELOW 12,000 FEET WITH NO
SIGNIFICANT WEATHER AND/OR OBSTRUCTIONS TO VISIBILITY.


OHZ009>014-019>023-028>033-038-089-200000-
   NORTHEAST OHIO
  
CITY           SKY/WX    TMP DP  RH WIND       PRES   REMARKS
CLE-HOPKINS    PTSUNNY   74  59  59 NE10      29.71F                  
CLE-LAKEFRONT  FAIR      70  62  76 NE7       29.69F                  
CUY CO. ARPT   MOSUNNY   73  61  64 N7        29.70F                  
LORAIN-ELYRIA  FAIR      74  56  53 NE6       29.70F                  
ASHTABULA      FAIR      76  63  64 VRB3      29.72S                  
AKRON-CANTON   PTSUNNY   81  62  52 CALM      29.69F                  
WOOSTER        FAIR      78  63  59 N5        29.69F                  
MANSFIELD      FAIR      77  65  66 N5        29.70F                  
YOUNGSTOWN     PTSUNNY   80  66  62 N10       29.69F                  
$$
 

SKY/WX - Weather  TMP - Temperature  DP - Dew Point  RH - Relative Humidity
WIND - Wind Direction/Speed PRES - Barometric Pressure VSB - Visibility
WCI - Wind Chill Index E13G22 Wind - East Wind 13 mph/Gusts of 22 mph